Regional Weather Roundup
Issued by NWS

Home | Current Version | Previous Version | Text Only | Print | Product List | Glossary Off
Versions: 1 2 3 4 5 6 7 8 9 10 11 12 13 14 15 16 17 18 19 20 21 22 23 24 25 26 27 28 29 30 31 32 33 34 35 36 37 38 39 40 41 42 43 44 45 46 47 48 49 50

000
ASUS43 KBIS 201320
RWRND

NORTH DAKOTA REGIONAL WEATHER ROUNDUP
NATIONAL WEATHER SERVICE BISMARCK ND
800 AM CDT SAT SEP 20 2014

NOTE: "FAIR" INDICATES FEW OR NO CLOUDS BELOW 12,000 FEET WITH NO
SIGNIFICANT WEATHER AND/OR OBSTRUCTIONS TO VISIBILITY.


NDZ001>003-009>011-017-201400-
NORTHWEST NORTH DAKOTA

CITY           SKY/WX    TMP DP  RH WIND       PRES   REMARKS
WILLISTON      MOCLDY    56  49  77 N14       29.93R
MINOT          MOCLDY    57  51  80 SW9       29.79F
MINOT AFB      MOCLDY    56  55  95 NW14      29.79F
$$

NDZ018>021-031>035-040>046-201400-
SOUTHWEST NORTH DAKOTA

CITY           SKY/WX    TMP DP  RH WIND       PRES   REMARKS
BISMARCK       PTCLDY    52  49  89 W5        29.87S
DICKINSON      CLEAR     54  47  77 W14       29.91R
GARRISON         N/A     53  52  96 SW5       29.85R
HETTINGER ARPT CLEAR     54  47  77 W13       29.96R
$$

NDZ004>008-012>016-024-026-027-054-201400-
NORTHEAST NORTH DAKOTA

CITY           SKY/WX    TMP DP  RH WIND       PRES   REMARKS
GRAND FORKS    CLOUDY    54  52  94 S3        29.80R
GRND FRKS AFB  PTCLDY    49  49 100 S6        29.81R
DEVILS LAKE    PTCLDY    55  48  76 W7        29.78S
$$

NDZ022-023-025-028>030-036>039-047>053-201400-
SOUTHEAST NORTH DAKOTA

CITY           SKY/WX    TMP DP  RH WIND       PRES   REMARKS
FARGO          CLEAR     51  49  92 SW3       29.82R
JAMESTOWN      CLEAR     53  51  93 W6        29.84R
$$




USA.gov is the U.S. government's official web portal to all federal, state and local government web resources and services.